Location: Asheville, NC
(35.6000°N, 82.5500°W)
Time: 18:47:29
(UTC-05:00)

Vanguard 2 Rocket - Pass Details

Date: 13 February 2018
Orbit: 555 x 3327 km, 32.9° (Epoch: 17 February)

Event Time Altitude Azimuth Distance (km) Brightness Sun altitude
Rises 09:15:10 0° 281° (W) 6,968 10.9 20.5°
Reaches altitude 10° 09:22:43 10° 264° (W) 5,490 10.5 21.8°
Maximum altitude 09:30:50 16° 233° (SW) 4,292 10.3 23.1°
Drops below altitude 10° 09:37:16 10° 199° (SSW) 4,147 10.6 24.1°
Sets 09:41:44 0° 178° (S) 4,624 11.1 24.8°
